AirNav   Air Wisconsin pilot careers
 
 293 users online  

3A7 Eutaw Municipal Airport
Eutaw, Alabama, USA

GOING TO EUTAW?


FAA INFORMATION EFFECTIVE 28 MARCH 2019

Location

FAA Identifier: 3A7
Lat/Long: 32-49-13.5000N / 087-51-54.3000W
32-49.225000N / 087-51.905000W
32.8204167 / -87.8650833
(estimated)
Elevation: 170 ft. / 51.8 m (surveyed)
Variation: 01E (1985)
From city: 2 miles SE of EUTAW, AL
Time zone: UTC -5 (UTC -6 during Standard Time)
Zip code: 35462

Airport Operations

Airport use: CLOSED INDEFINITELY
Activation date: 04/1940
Control tower: no
ARTCC: ATLANTA CENTER
FSS: ANNISTON FLIGHT SERVICE STATION
NOTAMs facility: ANB (NOTAM-D service available)
Attendance: UNATNDD
Wind indicator: no
Segmented circle: no
Beacon: white-green (lighted land airport)
ROTG BCN OTS INDEFLY. Operates sunset to sunrise.
Taxiway lights: TWY LGTS FOR TWY TURNOFF ONLY.

Airport Communications

CTAF: 122.9

Nearby radio navigation aids

VOR radial/distance  VOR name  Freq  Var
LDKr209/31.1CRIMSON VORTAC117.8003E
OKWr231/39.8BROOKWOOD VORTAC111.0000E

Airport Services

Parking: tiedowns
Airframe service: NONE
Powerplant service: NONE

Runway Information

Runway 16/34

Dimensions: 3600 x 80 ft. / 1097 x 24 m
Surface: asphalt, in poor condition
SEVERE CRACKING WITH VEGETATION.
Runway edge lights: medium intensity
OTS INDEFLY.
Runway edge markings: RY 16 & 34 MKGS FADED.
RUNWAY 16  RUNWAY 34
Latitude: 32-49.505595N32-48.944175N
Longitude: 087-52.019243W087-51.790172W
Elevation: 170.0 ft.163.0 ft.
Traffic pattern: leftleft
Runway heading: 160 magnetic, 161 true340 magnetic, 341 true
Markings: nonprecision, in poor conditionnonprecision, in poor condition
Runway end identifier lights: nono
Obstructions: none26 ft. pline, marked, 1086 ft. from runway, 15 ft. left of centerline, 34:1 slope to clear

Airport Ownership and Management from official FAA records

Ownership: Publicly-owned
Owner: TOWN OF EUTAW
P O BOX 431
EUTAW, AL 35462
Phone 205-372-4212
Manager: TOWN OF EUTAW
P.O. BOX 431
EUTAW, AL 35462
Phone 205-372-4212

Airport Operational Statistics

Aircraft based on the field: 5
Single engine airplanes: 4
Multi engine airplanes: 1
    
Aircraft operations: avg 123/week *
93% transient general aviation
7% local general aviation
* for 12-month period ending 07 October 2015

Additional Remarks

(ARPT STATUS) ARPT CLSD INDEFLY.
(PAY PHONE) PAY PHONE AVAILABLE. PAYPHONE AVBL AT ARPT 205-372-9901.

Instrument Procedures

There are no published instrument procedures at 3A7.

Some nearby airports with instrument procedures:

KDYA - Demopolis Regional Airport (22 nm S)
KAIV - George Downer Airport (24 nm NW)
KTCL - Tuscaloosa Regional Airport (27 nm NE)
A08 - Vaiden Field Airport (31 nm SE)
3M8 - North Pickens Airport (35 nm N)
 
Loc | Ops | Rwys | IFR | FBO | Links
Com | Nav | Svcs | Stats | Notes
Area around 3A7 (Eutaw Municipal Airport)
 
Road maps at: MapQuest Bing Google
 
Aerial photo
WARNING: Photo may not be current or correct
Aerial photo of 3A7 (Eutaw Municipal Airport)
Photo by AirNav, LLC
Photo taken 14-Oct-2010
looking northwest.

Do you have a better or more recent aerial photo of Eutaw Municipal Airport that you would like to share? If so, please send us your photo.

 
Sectional chart

 
Airport distance calculator
Flying to Eutaw Municipal Airport? Find the distance to fly.

From to 3A7

Sunrise and sunset
Times for 22-Apr-2019
 Local
(UTC-5)
 Zulu
(UTC)
Morning civil twilight05:4910:49
Sunrise06:1511:15
Sunset19:2500:25
Evening civil twilight19:5100:51

Current date and time
Zulu (UTC)  22-Apr-2019 07:05:17
Local (UTC-5)  22-Apr-2019 02:05:17
 
METAR
KDYA 
22nm S 
220655Z AUTO 00000KT 10SM CLR 10/09 A3016 RMK AO2 T00950091
KTCL 
27nm NE 
220653Z AUTO 00000KT 9SM CLR 12/09 A3016 RMK AO2 SLP210 T01170094
KA08 
31nm SE 
220655Z AUTO 20006KT 10SM CLR 10/07 A3015 RMK AO2 T00960070
KNMM 
39nm SW 
220656Z AUTO 24005KT 10SM CLR 13/08 A3015 RMK AO2 SLP220 T01330078
TAF
KTCL 
27nm NE 
220539Z 2206/2306 00000KT P6SM SKC FM221700 20006KT P6SM SKC FM230000 00000KT P6SM SKC
NOTAMs
Click for the latest NOTAMs
NOTAMs are issued by the DoD/FAA and will open in a separate window not controlled by AirNav.

 

 
 

Would you like to see your business listed on this page?

 If your business provides an interesting product or service to pilots, flight crews, aircraft, or users of the Eutaw Municipal Airport, you should consider listing it here.  To start the listing process, click on the button below
 
Add a business
 

Other Pages about Eutaw Municipal Airport

Update a link
 
Copyright © AirNav, LLC. All rights reserved. Privacy Policy  Contact